Saline, United Kingdom
Current Conditions -  °F | °C
As of 5:20 AM on Thursday 27 Nov 2014 (Local Time) from EGPH Reporting Station
Broken Clouds Broken Clouds  
Wind Chill: 43°   Ceiling: 2800
Heat Index: 43°   Visibility: 6mi
Dew Point: 41°   Wind: 0mph
Humidity: 93%   Direction: NA
Pressure: 29.68"   Gusts: NA
Location:  56.11°N, 3.57°W
Report Text: EGPH 270520Z 00000KT 9999 BKN028 06/05 Q1005
Loading
Personal Weather Stations






























Interactive Weather Map New forecast layout! Learn more

10-Day Weather Forecast

Advertisements
Track Severe Weather on mobile